Previsão horária em Cava de' Tirreni

Hoje, 25 Julho, Domingo

Tempo Temperatura Precipitação Vento Pressão Humidade
00:00 +25°C° 0 mm 1 m/s 729 mmHg 67%
01:00 +24°C° 0 mm 1 m/s 729 mmHg 69%
02:00 +24°C° 0 mm 1 m/s 728 mmHg 69%
03:00 +24°C° 0 mm 1 m/s 728 mmHg 70%
04:00 +23°C° 0 mm 1 m/s 728 mmHg 71%
05:00 +25°C° 0 mm 1 m/s 728 mmHg 65%
06:00 +26°C° 0 mm 1 m/s 729 mmHg 59%
07:00 +28°C° 0 mm 1 m/s 729 mmHg 53%
08:00 +30°C° 0 mm 1 m/s 729 mmHg 46%
09:00 +32°C° 0 mm 2 m/s 729 mmHg 39%
10:00 +34°C° 0 mm 2 m/s 729 mmHg 32%
11:00 +35°C° 0 mm 2 m/s 729 mmHg 30%
12:00 +36°C° 0 mm 3 m/s 729 mmHg 28%
13:00 +36°C° 0 mm 3 m/s 729 mmHg 25%
14:00 +36°C° 0 mm 3 m/s 729 mmHg 26%
15:00 +35°C° 0 mm 3 m/s 729 mmHg 27%
16:00 +35°C° 0 mm 3 m/s 729 mmHg 28%
17:00 +34°C° 0 mm 3 m/s 729 mmHg 30%
18:00 +31°C° 0 mm 3 m/s 728 mmHg 33%
19:00 +30°C° 0 mm 2 m/s 728 mmHg 36%
20:00 +29°C° 0 mm 2 m/s 728 mmHg 36%
21:00 +28°C° 0 mm 2 m/s 728 mmHg 36%
22:00 +28°C° 0 mm 2 m/s 728 mmHg 36%
23:00 +27°C° 0 mm 1 m/s 729 mmHg 37%

Amanhã, 26 Julho, Segunda-feira

Tempo Temperatura Precipitação Vento Pressão Humidade
00:00 +27°C° 0 mm 1 m/s 729 mmHg 37%
01:00 +26°C° 0 mm 1 m/s 729 mmHg 37%
02:00 +26°C° 0 mm 1 m/s 729 mmHg 37%
03:00 +26°C° 0 mm 1 m/s 728 mmHg 38%
04:00 +26°C° 0 mm 1 m/s 728 mmHg 38%
05:00 +27°C° 0 mm 1 m/s 729 mmHg 36%
06:00 +28°C° 0 mm 1 m/s 729 mmHg 34%
07:00 +29°C° 0 mm 1 m/s 730 mmHg 32%
08:00 +31°C° 0 mm 1 m/s 730 mmHg 27%
09:00 +33°C° 0 mm 1 m/s 730 mmHg 22%
10:00 +36°C° 0 mm 2 m/s 730 mmHg 17%
11:00 +37°C° 0 mm 2 m/s 730 mmHg 16%
12:00 +37°C° 0 mm 3 m/s 730 mmHg 16%
13:00 +38°C° 0 mm 3 m/s 730 mmHg 15%
14:00 +38°C° 0 mm 3 m/s 730 mmHg 15%
15:00 +38°C° 0 mm 3 m/s 730 mmHg 16%
16:00 +38°C° 0 mm 3 m/s 730 mmHg 16%
17:00 +36°C° 0 mm 3 m/s 730 mmHg 19%
18:00 +34°C° 0 mm 3 m/s 730 mmHg 23%
19:00 +31°C° 0 mm 2 m/s 730 mmHg 26%
20:00 +30°C° 0 mm 2 m/s 730 mmHg 27%
21:00 +29°C° 0 mm 2 m/s 730 mmHg 28%
22:00 +28°C° 0 mm 2 m/s 731 mmHg 29%
23:00 +27°C° 0 mm 2 m/s 731 mmHg 29%

Depois de amanhã, 27 Julho, Terça-feira

Tempo Temperatura Precipitação Vento Pressão Humidade
00:00 +27°C° 0 mm 2 m/s 731 mmHg 29%
01:00 +27°C° 0 mm 1 m/s 730 mmHg 29%
02:00 +26°C° 0 mm 1 m/s 730 mmHg 28%
03:00 +26°C° 0 mm 1 m/s 730 mmHg 28%
04:00 +26°C° 0 mm 1 m/s 730 mmHg 27%
05:00 +27°C° 0 mm 1 m/s 730 mmHg 26%
06:00 +29°C° 0 mm 1 m/s 731 mmHg 25%
07:00 +30°C° 0 mm 1 m/s 731 mmHg 23%
08:00 +32°C° 0 mm 2 m/s 731 mmHg 21%
09:00 +35°C° 0 mm 2 m/s 732 mmHg 19%
10:00 +37°C° 0 mm 2 m/s 732 mmHg 17%
11:00 +38°C° 0 mm 3 m/s 732 mmHg 17%
12:00 +38°C° 0 mm 3 m/s 731 mmHg 17%
13:00 +39°C° 0 mm 3 m/s 731 mmHg 17%
14:00 +39°C° 0 mm 3 m/s 731 mmHg 18%
15:00 +38°C° 0 mm 3 m/s 731 mmHg 19%
16:00 +38°C° 0 mm 4 m/s 731 mmHg 20%
17:00 +36°C° 0 mm 3 m/s 731 mmHg 26%
18:00 +34°C° 0 mm 3 m/s 730 mmHg 31%
19:00 +31°C° 0 mm 2 m/s 730 mmHg 37%
20:00 +30°C° 0 mm 2 m/s 731 mmHg 38%
21:00 +29°C° 0 mm 1 m/s 731 mmHg 38%
22:00 +28°C° 0 mm 1 m/s 731 mmHg 39%
23:00 +28°C° 0 mm 1 m/s 731 mmHg 38%

28 Julho, Quarta-feira

Tempo Temperatura Precipitação Vento Pressão Humidade
00:00 +28°C° 0 mm 1 m/s 731 mmHg 37%
01:00 +27°C° 0 mm 1 m/s 730 mmHg 37%
02:00 +27°C° 0 mm 1 m/s 730 mmHg 36%
03:00 +27°C° 0 mm 1 m/s 730 mmHg 34%
04:00 +27°C° 0 mm 1 m/s 730 mmHg 33%
05:00 +28°C° 0 mm 1 m/s 730 mmHg 31%
06:00 +28°C° 0 mm 0 m/s 730 mmHg 28%
07:00 +29°C° 0 mm 0 m/s 730 mmHg 25%
08:00 +33°C° 0 mm 1 m/s 731 mmHg 23%
09:00 +35°C° 0 mm 1 m/s 731 mmHg 20%
10:00 +38°C° 0 mm 2 m/s 731 mmHg 17%
11:00 +38°C° 0 mm 2 m/s 731 mmHg 17%
12:00 +39°C° 0 mm 3 m/s 731 mmHg 17%
13:00 +40°C° 0 mm 4 m/s 730 mmHg 17%
14:00 +40°C° 0 mm 4 m/s 730 mmHg 18%
15:00 +40°C° 0 mm 4 m/s 730 mmHg 19%
16:00 +38°C° 0 mm 4 m/s 730 mmHg 20%
17:00 +36°C° 0 mm 3 m/s 730 mmHg 24%
18:00 +34°C° 0 mm 3 m/s 730 mmHg 29%
19:00 +31°C° 0 mm 2 m/s 730 mmHg 33%
20:00 +30°C° 0 mm 2 m/s 730 mmHg 33%
21:00 +30°C° 0 mm 1 m/s 730 mmHg 33%
22:00 +29°C° 0 mm 1 m/s 730 mmHg 34%
23:00 +28°C° 0 mm 1 m/s 730 mmHg 35%

29 Julho, Quinta-feira

Tempo Temperatura Precipitação Vento Pressão Humidade
00:00 +28°C° 0 mm 1 m/s 730 mmHg 35%
01:00 +27°C° 0 mm 1 m/s 730 mmHg 36%
02:00 +27°C° 0 mm 1 m/s 730 mmHg 37%
03:00 +26°C° 0 mm 1 m/s 730 mmHg 38%
04:00 +26°C° 0 mm 1 m/s 729 mmHg 39%
05:00 +28°C° 0 mm 1 m/s 730 mmHg 36%
06:00 +29°C° 0 mm 1 m/s 730 mmHg 33%
07:00 +29°C° 0 mm 0 m/s 730 mmHg 30%
08:00 +33°C° 0 mm 1 m/s 730 mmHg 26%
09:00 +36°C° 0 mm 2 m/s 730 mmHg 21%
10:00 +38°C° 0 mm 2 m/s 730 mmHg 17%
11:00 +38°C° 0 mm 3 m/s 730 mmHg 17%
12:00 +39°C° 0 mm 3 m/s 730 mmHg 17%
13:00 +40°C° 0 mm 4 m/s 730 mmHg 17%
14:00 +40°C° 0 mm 4 m/s 730 mmHg 17%
15:00 +39°C° 0 mm 3 m/s 730 mmHg 18%
16:00 +38°C° 0 mm 3 m/s 730 mmHg 18%
17:00 +36°C° 0 mm 3 m/s 729 mmHg 22%
18:00 +34°C° 0 mm 2 m/s 729 mmHg 26%
19:00 +32°C° 0 mm 1 m/s 729 mmHg 30%
20:00 +31°C° 0 mm 1 m/s 729 mmHg 31%
21:00 +30°C° 0 mm 1 m/s 729 mmHg 32%
22:00 +29°C° 0 mm 1 m/s 729 mmHg 32%
23:00 +28°C° 0 mm 1 m/s 729 mmHg 33%

30 Julho, Sexta-feira

Tempo Temperatura Precipitação Vento Pressão Humidade
00:00 +28°C° 0 mm 1 m/s 729 mmHg 33%
01:00 +27°C° 0 mm 1 m/s 729 mmHg 34%
02:00 +27°C° 0 mm 1 m/s 728 mmHg 34%
03:00 +27°C° 0 mm 1 m/s 728 mmHg 35%
04:00 +26°C° 0 mm 1 m/s 728 mmHg 35%
05:00 +28°C° 0 mm 1 m/s 728 mmHg 32%
06:00 +29°C° 0 mm 1 m/s 728 mmHg 30%
07:00 +31°C° 0 mm 1 m/s 729 mmHg 28%
08:00 +33°C° 0 mm 1 m/s 729 mmHg 24%
09:00 +36°C° 0 mm 2 m/s 729 mmHg 21%
10:00 +38°C° 0 mm 2 m/s 729 mmHg 17%
11:00 +38°C° 0 mm 3 m/s 728 mmHg 17%
12:00 +39°C° 0 mm 3 m/s 728 mmHg 18%
13:00 +40°C° 0 mm 4 m/s 728 mmHg 18%
14:00 +38°C° 0 mm 3 m/s 728 mmHg 20%
15:00 +37°C° 0 mm 3 m/s 728 mmHg 21%
16:00 +37°C° 0 mm 3 m/s 728 mmHg 22%
17:00 +35°C° 0 mm 3 m/s 727 mmHg 27%
18:00 +32°C° 0 mm 2 m/s 727 mmHg 31%
19:00 +30°C° 0 mm 2 m/s 727 mmHg 36%
20:00 +29°C° 0 mm 1 m/s 727 mmHg 38%
21:00 +28°C° 0 mm 1 m/s 727 mmHg 40%
22:00 +27°C° 0 mm 1 m/s 727 mmHg 42%
23:00 +27°C° 0 mm 1 m/s 727 mmHg 42%
Mostrar mais

Necessitamos do seu Consentimento

A Meteoprog e os seus Fornecedores de Serviços podem armazenar e aceder a dados pessoais como cookies, identificadores do dispositivo ou outras tecnologias semelhantes existentes no seu dispositivo e processar estes dados para personalizar conteúdos e anúncios, assim como funcionalidades nas redes sociais e análise de tráfego.

  • Armazenar e/ou aceder a informações no seu dispositivo

    Os cookies, identificadores do dispositivo ou outras informações podem ser armazenados ou acedidos no seu dispositivo, para os fins acima indicados.

  • Anúncios e conteúdos personalizados, medição de anúncios e conteúdos, dados sobre o público-alvo e desenvolvimento de produtos

    Os anúncios e os conteúdos podem ser personalizados com base num perfil. Podem ser adicionados dados adicionais para uma maior personalização dos anúncios e dos conteúdos. A eficácia dos anúncios e dos conteúdos pode ser medida. Podem ser obtidas informações sobre o público que visualizou os anúncios e os conteúdos. Estes dados podem ser usados para desenvolver ou melhorar sistemas, softwares ou a experiência do utilizador.

Ao clicar em "Eu concordo”, permitirá o uso de cookies, identificadores do dispositivo e web beacons mencionados ou outras tecnologias semelhantes. As configurações do navegador do seu dispositivo podem ser alteradas.

Para certos fins, podem ser invocados interesses legítimos ao invés de consentimento. Pode ler mais informação sobre este assunto na nossa Política de Privacidade e Cookies.